Location: Oberkirch
(48.5323°N, 8.0787°E)
Time: 02:11:53
(UTC+00:00)

AO-85 - Pass Details

Date: 20 March 2026
Orbit: 507 x 686 km, 64.8° (Epoch: 12 April)

Event Time Altitude Azimuth Distance (km) Brightness Sun altitude
Exits shadow 04:56:16 - 291° (WNW) 2,139 ? -6.6°
Reaches altitude 10° 04:58:00 10° 311° (NW) 1,746 ? -6.3°
Maximum altitude 04:59:37 12° 336° (NNW) 1,604 ? -6.0°
Drops below altitude 10° 05:01:14 10° 1° (N) 1,735 ? -5.7°
Sets 05:04:37 0° 33° (NNE) 2,620 ? -5.2°
